Regional Weather Roundup
Issued by NWS

Home | Current Version | Previous Version | Text Only | Print | Product List | Glossary Off
Versions: 1 2 3 4 5 6 7 8 9 10 11 12 13 14 15 16 17 18 19 20 21 22 23 24 25 26 27 28 29 30 31 32 33 34 35 36 37 38 39 40 41 42 43 44 45 46 47 48 49 50

000
ASUS45 KABQ 051310
RWRNM
NEW MEXICO REGIONAL WEATHER ROUNDUP
NATIONAL WEATHER SERVICE ALBUQUERQUE NM
700 AM MDT THU MAY 05 2016

NOTE: "FAIR" MEANS FEW OR NO CLOUDS BELOW 12,000 FEET AGL WITH NO
       SIGNIFICANT WEATHER OR OBSTRUCTIONS TO VISION.

      THIS PRODUCT IS RELEASED AS TWO VERSIONS.  ONE VERSION NEAR
      THE TOP OF THE HOUR CONTAINING PRELIMINARY DATA FROM ALBUQUERQUE
      AND OTHER STATIONS.  A FINAL VERSION WITH ADDITIONAL DATA IS
      ISSUED ABOUT 10 MINUTES AFTER THE HOUR.

NMZ501-503-504-510>518-051400-
NORTHWEST PLATEAU/NORTHCENTRAL MOUNTAINS

CITY           SKY/WX    TMP DP  RH WIND       PRES   REMARKS
FARMINGTON     FAIR      50  29  44 SE8       30.16R
LOS ALAMOS     FAIR      50 -15   6 CALM      30.31R
SANTA FE       FAIR      47  23  38 N7        30.25R
TAOS           FAIR      37  27  65 N6        30.31S WCI  33
ANGEL FIRE     FAIR      26  23  88 CALM      30.39R

$$
NMZ402-403-502-505>509-051400-
WESTCENTRAL MOUNTAINS/SOUTHWEST MOUNTAINS

CITY           SKY/WX    TMP DP  RH WIND       PRES   REMARKS
GALLUP         FAIR      43  32  65 CALM      30.21R
GRANTS         FAIR      36  32  85 CALM      30.26R
SILVER CITY      N/A     55  19  24 E8        30.18R

$$
NMZ407-409-411-412-051400-
SOUTHERN DESERTS

CITY           SKY/WX    TMP DP  RH WIND       PRES   REMARKS
LORDSBURG      FAIR      64  21  19 SE12      30.06S
DEMING         FAIR      59  22  24 E8        30.11R
LAS CRUCES     FAIR      61  21  20 SE6       30.15R
HOLLOMAN AFB   FAIR      48  18  29 N7        30.14R
ALAMOGORDO     FAIR      52  19  28 NE3       30.16R
T OR C         FAIR      54  23  30 NW7       30.16R

$$
NMZ519>523-051400-
CENTRAL VALLEYS/CENTRAL HIGHLANDS

CITY           SKY/WX    TMP DP  RH WIND       PRES   REMARKS
ALBUQUERQUE    FAIR      54  24  31 N12       30.21R
DOUBLE EAGLE   CLEAR     43  27  52 CALM      30.24R
MORIARTY ARPT  FAIR      33  21  61 CALM      30.27R
CLINES CORNERS FAIR      49  20  31 W7        30.27R
BELEN          FAIR      47  24  39 N3        30.20R
SOCORRO        FAIR      54  20  27 S8        30.17R

$$
NMZ524>526-539-540-051400-
SOUTHCENTRAL MOUNTAINS

CITY           SKY/WX    TMP DP  RH WIND       PRES   REMARKS
RUIDOSO          N/A     50  23  34 W5        30.30S

$$
NMZ527>531-051400-
NORTHEAST HIGHLANDS/NORTHEAST PLAINS

CITY           SKY/WX    TMP DP  RH WIND       PRES   REMARKS
LAS VEGAS      FAIR      44  27  51 NE3       30.27S
RATON          FAIR      40  31  70 CALM      30.23R
CLAYTON        FAIR      53  32  44 W13       30.15R

$$
NMZ532>537-051400-
EASTCENTRAL PLAINS

CITY           SKY/WX    TMP DP  RH WIND       PRES   REMARKS
TUCUMCARI      FAIR      54  33  45 W8        30.14R
CANNON AFB     SUNNY     49  32  52 N3        30.17R
CLOVIS AIRPORT FAIR      48  36  61 NW5       30.17S

$$
NMZ028-029-538-051400-
SOUTHEAST PLAINS

CITY           SKY/WX    TMP DP  RH WIND       PRES   REMARKS
ROSWELL        FAIR      52  27  38 N3        30.14R
ARTESIA        FAIR      52  27  37 CALM      30.15R
CARLSBAD       FAIR      51  27  39 NW5       30.13R
HOBBS          SUNNY     50  28  43 NW5       30.17R


$$




USA.gov is the U.S. government's official web portal to all federal, state and local government web resources and services.